N13BE CYSU-KACK

Flight info

Callsign N13BE
Flight time 3h 10m
Altitude 8000
Route YDD ALLEX AJJAY LFV ACK
Aircraft BE33/L-VGD/C

Departure

Time 2026-05-04 17:03
Airport Summerside Airport (CYSU)

Arrival

Time 2026-05-04 20:13
Airport Nantucket Memorial Airport (KACK)
Time Latitude Longitude Altitude Speed Heading
2026-05-04 16:55 46.43990 -63.83085 67 ft 0 kts 275°
2026-05-04 16:58 46.44122 -63.83070 62 ft 11 kts 41°
2026-05-04 16:58 46.44188 -63.82995 59 ft 12 kts 48°
2026-05-04 16:59 46.44313 -63.82824 55 ft 14 kts 29°
2026-05-04 17:00 46.44713 -63.82411 38 ft 19 kts 40°
2026-05-04 17:00 46.44881 -63.82338 31 ft 0 kts 308°
2026-05-04 17:01 46.44894 -63.82362 31 ft 6 kts 306°
2026-05-04 17:02 46.44766 -63.82624 36 ft 47 kts 216°
2026-05-04 17:02 46.43930 -63.83447 343 ft 81 kts 220°
2026-05-04 17:03 46.43427 -63.83903 602 ft 86 kts 222°
2026-05-04 17:03 46.42870 -63.84329 827 ft 96 kts 209°
2026-05-04 17:03 46.41578 -63.84980 1247 ft 97 kts 214°
2026-05-04 17:04 46.40356 -63.85755 1666 ft 96 kts 220°
2026-05-04 17:04 46.39174 -63.86608 2085 ft 93 kts 224°
2026-05-04 17:05 46.38052 -63.87489 2493 ft 92 kts 225°
2026-05-04 17:05 46.36933 -63.88397 2904 ft 92 kts 227°
2026-05-04 17:06 46.35822 -63.89328 3309 ft 93 kts 227°
2026-05-04 17:06 46.35266 -63.89800 3516 ft 92 kts 227°
2026-05-04 17:07 46.34167 -63.90735 3925 ft 92 kts 228°
2026-05-04 17:07 46.33800 -63.91049 4063 ft 91 kts 228°
2026-05-04 17:07 46.33078 -63.91665 4337 ft 90 kts 229°
2026-05-04 17:07 46.32547 -63.92121 4542 ft 89 kts 229°
2026-05-04 17:08 46.32021 -63.92571 4744 ft 87 kts 229°
2026-05-04 17:08 46.30983 -63.93465 5162 ft 87 kts 230°
2026-05-04 17:08 46.30461 -63.93917 5372 ft 88 kts 230°
2026-05-04 17:09 46.29935 -63.94368 5576 ft 87 kts 230°
2026-05-04 17:09 46.29415 -63.94817 5773 ft 87 kts 230°
2026-05-04 17:09 46.28900 -63.95260 5969 ft 86 kts 231°
2026-05-04 17:10 46.27880 -63.96135 6369 ft 83 kts 232°
2026-05-04 17:10 46.26443 -63.97364 6977 ft 76 kts 233°
2026-05-04 17:11 46.25993 -63.97747 7184 ft 75 kts 234°
2026-05-04 17:11 46.25546 -63.98133 7398 ft 75 kts 233°
2026-05-04 17:11 46.24654 -63.98904 7810 ft 74 kts 233°
2026-05-04 17:12 46.24192 -63.99321 7899 ft 87 kts 233°
2026-05-04 17:12 46.22946 -64.00478 7910 ft 123 kts 228°
2026-05-04 17:13 46.20473 -64.02626 7918 ft 148 kts 225°
2026-05-04 17:14 46.17720 -64.04982 7918 ft 154 kts 225°
2026-05-04 17:14 46.16797 -64.05769 7917 ft 153 kts 225°
2026-05-04 17:14 46.14969 -64.07339 7901 ft 152 kts 224°
2026-05-04 17:15 46.14051 -64.08109 7899 ft 152 kts 223°
2026-05-04 17:15 46.12231 -64.09643 7900 ft 151 kts 224°
2026-05-04 17:16 46.10419 -64.11189 7901 ft 151 kts 224°
2026-05-04 17:16 46.07719 -64.13498 7911 ft 150 kts 224°
2026-05-04 17:17 46.06825 -64.14266 7905 ft 151 kts 224°
2026-05-04 17:17 46.04121 -64.16582 7906 ft 150 kts 224°
2026-05-04 17:18 46.03215 -64.17358 7911 ft 149 kts 224°
2026-05-04 17:18 46.01414 -64.18896 7910 ft 148 kts 224°
2026-05-04 17:19 45.99653 -64.20407 7927 ft 148 kts 224°
2026-05-04 17:19 45.97865 -64.21935 7927 ft 149 kts 224°
2026-05-04 17:20 45.96081 -64.23457 7931 ft 149 kts 224°
2026-05-04 17:20 45.94305 -64.24972 7937 ft 149 kts 224°
2026-05-04 17:20 45.93418 -64.25725 8004 ft 146 kts 224°
2026-05-04 17:21 45.91678 -64.27210 8015 ft 147 kts 224°
2026-05-04 17:21 45.89910 -64.28717 8020 ft 148 kts 224°
2026-05-04 17:22 45.89031 -64.29466 8016 ft 148 kts 224°
2026-05-04 17:22 45.88136 -64.30229 8012 ft 149 kts 224°
2026-05-04 17:23 45.85482 -64.32484 8022 ft 147 kts 224°
2026-05-04 17:23 45.84604 -64.33232 8019 ft 148 kts 223°
2026-05-04 17:23 45.82828 -64.34738 8025 ft 147 kts 224°
2026-05-04 17:24 45.81947 -64.35484 8021 ft 147 kts 224°
2026-05-04 17:24 45.79287 -64.37743 8012 ft 148 kts 224°
2026-05-04 17:25 45.78406 -64.38487 8016 ft 148 kts 224°
2026-05-04 17:25 45.76637 -64.39990 8013 ft 148 kts 224°
2026-05-04 17:26 45.74862 -64.41488 8012 ft 147 kts 224°
2026-05-04 17:26 45.72218 -64.43726 8020 ft 147 kts 223°
2026-05-04 17:27 45.70463 -64.45207 8031 ft 147 kts 224°
2026-05-04 17:27 45.68706 -64.46688 8035 ft 147 kts 224°
2026-05-04 17:28 45.66949 -64.48172 8032 ft 147 kts 224°
2026-05-04 17:29 45.64301 -64.50405 8035 ft 147 kts 224°
2026-05-04 17:29 45.61659 -64.52628 8034 ft 147 kts 224°
2026-05-04 17:30 45.59023 -64.54844 8037 ft 146 kts 224°
2026-05-04 17:31 45.57273 -64.56315 8044 ft 146 kts 224°
2026-05-04 17:31 45.54635 -64.58530 8041 ft 146 kts 223°
2026-05-04 17:32 45.52880 -64.60001 8034 ft 147 kts 223°
2026-05-04 17:33 45.50222 -64.62228 8022 ft 147 kts 223°
2026-05-04 17:33 45.49347 -64.62959 8029 ft 147 kts 224°
2026-05-04 17:34 45.46712 -64.65166 8057 ft 146 kts 223°
2026-05-04 17:34 45.45832 -64.65900 8069 ft 146 kts 223°
2026-05-04 17:35 45.43179 -64.68118 8060 ft 148 kts 223°
2026-05-04 17:35 45.41405 -64.69599 8058 ft 149 kts 223°
2026-05-04 17:35 45.40511 -64.70345 8057 ft 149 kts 223°
2026-05-04 17:36 45.39609 -64.71097 8058 ft 149 kts 223°
2026-05-04 17:36 45.38715 -64.71841 8057 ft 148 kts 223°
2026-05-04 17:36 45.37826 -64.72581 8060 ft 148 kts 223°
2026-05-04 17:36 45.36940 -64.73318 8062 ft 148 kts 223°
2026-05-04 17:37 45.36050 -64.74058 8066 ft 148 kts 223°
2026-05-04 17:37 45.35154 -64.74806 8063 ft 148 kts 223°
2026-05-04 17:37 45.34269 -64.75542 8063 ft 148 kts 223°
2026-05-04 17:37 45.33371 -64.76290 8065 ft 148 kts 222°
2026-05-04 17:38 45.32492 -64.77021 8072 ft 148 kts 222°
2026-05-04 17:38 45.31594 -64.77766 8072 ft 148 kts 222°
2026-05-04 17:38 45.30708 -64.78504 8074 ft 148 kts 222°
2026-05-04 17:38 45.29822 -64.79238 8077 ft 148 kts 223°
2026-05-04 17:39 45.28035 -64.80720 8071 ft 148 kts 223°
2026-05-04 17:39 45.27151 -64.81454 8069 ft 148 kts 223°
2026-05-04 17:39 45.26255 -64.82198 8072 ft 148 kts 223°
2026-05-04 17:40 45.25374 -64.82928 8079 ft 148 kts 222°
2026-05-04 17:40 45.24488 -64.83661 8086 ft 148 kts 223°
2026-05-04 17:40 45.23591 -64.84404 8087 ft 148 kts 223°
2026-05-04 17:40 45.22714 -64.85132 8080 ft 147 kts 223°
2026-05-04 17:41 45.21820 -64.85871 8079 ft 147 kts 222°
2026-05-04 17:41 45.20942 -64.86596 8078 ft 147 kts 222°
2026-05-04 17:41 45.20064 -64.87323 8077 ft 146 kts 223°
2026-05-04 17:41 45.19190 -64.88045 8077 ft 146 kts 223°
2026-05-04 17:42 45.18307 -64.88776 8085 ft 146 kts 222°
2026-05-04 17:42 45.17432 -64.89500 8091 ft 146 kts 223°
2026-05-04 17:42 45.16555 -64.90223 8086 ft 146 kts 223°
2026-05-04 17:42 45.15672 -64.90952 8086 ft 146 kts 223°
2026-05-04 17:43 45.14799 -64.91672 8082 ft 145 kts 222°
2026-05-04 17:43 45.13924 -64.92394 8087 ft 145 kts 223°
2026-05-04 17:43 45.13054 -64.93111 8088 ft 145 kts 222°
2026-05-04 17:43 45.12170 -64.93842 8101 ft 146 kts 222°
2026-05-04 17:44 45.11294 -64.94566 8094 ft 146 kts 222°
2026-05-04 17:44 45.10413 -64.95292 8088 ft 146 kts 222°
2026-05-04 17:44 45.09542 -64.96008 8096 ft 146 kts 222°
2026-05-04 17:44 45.08662 -64.96732 8088 ft 145 kts 222°
2026-05-04 17:45 45.07792 -64.97446 8088 ft 144 kts 222°
2026-05-04 17:45 45.06925 -64.98158 8085 ft 144 kts 223°
2026-05-04 17:45 45.06050 -64.98876 8090 ft 144 kts 223°
2026-05-04 17:45 45.05184 -64.99589 8090 ft 144 kts 223°
2026-05-04 17:46 45.04322 -65.00298 8094 ft 144 kts 223°
2026-05-04 17:46 45.03453 -65.01012 8123 ft 145 kts 223°
2026-05-04 17:46 45.02566 -65.01745 8107 ft 147 kts 223°
2026-05-04 17:46 45.01690 -65.02464 8098 ft 147 kts 222°
2026-05-04 17:47 45.00806 -65.03189 8091 ft 146 kts 222°
2026-05-04 17:47 44.99924 -65.03910 8074 ft 145 kts 223°
2026-05-04 17:47 44.99060 -65.04617 8038 ft 148 kts 223°
2026-05-04 17:47 44.98157 -65.05360 8009 ft 149 kts 221°
2026-05-04 17:48 44.97272 -65.06079 8001 ft 148 kts 222°
2026-05-04 17:48 44.96385 -65.06807 8002 ft 147 kts 222°
2026-05-04 17:48 44.95503 -65.07530 8000 ft 146 kts 222°
2026-05-04 17:48 44.94615 -65.08257 7993 ft 146 kts 222°
2026-05-04 17:49 44.93745 -65.08968 7989 ft 145 kts 222°
2026-05-04 17:49 44.92876 -65.09679 8005 ft 144 kts 222°
2026-05-04 17:49 44.92271 -65.10655 8019 ft 129 kts 251°
2026-05-04 17:49 44.91924 -65.11839 8024 ft 130 kts 254°
2026-05-04 17:50 44.91595 -65.13033 7998 ft 130 kts 255°
2026-05-04 17:50 44.91277 -65.14213 8003 ft 128 kts 255°
2026-05-04 17:50 44.90964 -65.15389 8007 ft 127 kts 255°
2026-05-04 17:50 44.90657 -65.16555 8015 ft 127 kts 255°
2026-05-04 17:51 44.90350 -65.17725 8017 ft 127 kts 255°
2026-05-04 17:51 44.90043 -65.18906 8006 ft 128 kts 255°
2026-05-04 17:51 44.89741 -65.20074 8008 ft 128 kts 255°
2026-05-04 17:51 44.89435 -65.21255 8007 ft 128 kts 255°
2026-05-04 17:52 44.89131 -65.22428 8002 ft 128 kts 255°
2026-05-04 17:52 44.88828 -65.23600 8003 ft 127 kts 255°
2026-05-04 17:52 44.88525 -65.24772 8007 ft 127 kts 255°
2026-05-04 17:52 44.88223 -65.25939 8002 ft 126 kts 255°
2026-05-04 17:53 44.87923 -65.27105 8015 ft 126 kts 255°
2026-05-04 17:53 44.87624 -65.28265 8020 ft 126 kts 255°
2026-05-04 17:53 44.87325 -65.29428 8014 ft 128 kts 255°
2026-05-04 17:53 44.87019 -65.30611 8013 ft 128 kts 255°
2026-05-04 17:54 44.86716 -65.31784 8005 ft 128 kts 255°
2026-05-04 17:54 44.86409 -65.32969 8003 ft 128 kts 255°
2026-05-04 17:54 44.86105 -65.34143 8000 ft 127 kts 255°
2026-05-04 17:54 44.85802 -65.35313 8007 ft 127 kts 255°
2026-05-04 17:55 44.85501 -65.36474 8006 ft 127 kts 255°
2026-05-04 17:55 44.85195 -65.37653 8002 ft 127 kts 255°
2026-05-04 17:55 44.84890 -65.38827 8004 ft 127 kts 255°
2026-05-04 17:55 44.84588 -65.39994 8011 ft 127 kts 255°
2026-05-04 17:56 44.84283 -65.41169 8003 ft 127 kts 255°
2026-05-04 17:56 44.83982 -65.42324 8008 ft 126 kts 255°
2026-05-04 17:56 44.83683 -65.43481 8012 ft 126 kts 255°
2026-05-04 17:56 44.83383 -65.44634 8016 ft 126 kts 255°
2026-05-04 17:57 44.83078 -65.45805 8013 ft 126 kts 255°
2026-05-04 17:57 44.82778 -65.46963 8015 ft 125 kts 255°
2026-05-04 17:57 44.82480 -65.48107 8013 ft 126 kts 255°
2026-05-04 17:57 44.82180 -65.49263 8009 ft 126 kts 255°
2026-05-04 17:58 44.81878 -65.50420 8015 ft 125 kts 255°
2026-05-04 17:58 44.81578 -65.51571 8013 ft 125 kts 255°
2026-05-04 17:58 44.81277 -65.52721 8010 ft 125 kts 255°
2026-05-04 17:58 44.80976 -65.53872 8009 ft 124 kts 255°
2026-05-04 17:59 44.80677 -65.55019 8021 ft 125 kts 255°
2026-05-04 17:59 44.80378 -65.56168 8017 ft 125 kts 255°
2026-05-04 17:59 44.79781 -65.58457 8012 ft 125 kts 254°
2026-05-04 18:00 44.79478 -65.59609 8014 ft 125 kts 255°
2026-05-04 18:00 44.79179 -65.60753 8019 ft 125 kts 254°
2026-05-04 18:00 44.78880 -65.61893 8022 ft 125 kts 254°
2026-05-04 18:00 44.78579 -65.63044 8016 ft 125 kts 255°
2026-05-04 18:01 44.78277 -65.64194 8016 ft 125 kts 255°
2026-05-04 18:01 44.77977 -65.65342 8022 ft 125 kts 254°
2026-05-04 18:01 44.77674 -65.66495 8024 ft 126 kts 254°
2026-05-04 18:02 44.77065 -65.68816 8020 ft 126 kts 254°
2026-05-04 18:02 44.76757 -65.69986 8038 ft 126 kts 253°
2026-05-04 18:02 44.76457 -65.71138 8029 ft 127 kts 253°
2026-05-04 18:02 44.76148 -65.72308 8025 ft 128 kts 253°
2026-05-04 18:03 44.75841 -65.73475 8021 ft 128 kts 253°
2026-05-04 18:03 44.75532 -65.74649 8024 ft 127 kts 253°
2026-05-04 18:03 44.75230 -65.75798 8027 ft 126 kts 253°
2026-05-04 18:03 44.74924 -65.76957 8026 ft 126 kts 253°
2026-05-04 18:04 44.74620 -65.78108 8032 ft 125 kts 253°
2026-05-04 18:04 44.74316 -65.79261 8027 ft 126 kts 253°
2026-05-04 18:04 44.73711 -65.81552 8031 ft 124 kts 253°
2026-05-04 18:05 44.73412 -65.82684 8035 ft 124 kts 253°
2026-05-04 18:05 44.73112 -65.83820 8040 ft 124 kts 253°
2026-05-04 18:05 44.72812 -65.84962 8028 ft 125 kts 253°
2026-05-04 18:05 44.72507 -65.86113 8028 ft 124 kts 253°
2026-05-04 18:06 44.71906 -65.88381 8031 ft 124 kts 253°
2026-05-04 18:06 44.71606 -65.89515 8032 ft 124 kts 253°
2026-05-04 18:06 44.71301 -65.90666 8035 ft 124 kts 253°
2026-05-04 18:07 44.70998 -65.91807 8035 ft 125 kts 253°
2026-05-04 18:07 44.70699 -65.92934 8028 ft 125 kts 253°
2026-05-04 18:07 44.70393 -65.94088 8023 ft 126 kts 253°
2026-05-04 18:07 44.70085 -65.95245 8024 ft 126 kts 253°
2026-05-04 18:08 44.69783 -65.96386 8024 ft 125 kts 253°
2026-05-04 18:08 44.69479 -65.97534 8032 ft 126 kts 253°
2026-05-04 18:08 44.69166 -65.98710 8020 ft 127 kts 253°
2026-05-04 18:08 44.68858 -65.99869 8016 ft 127 kts 253°
2026-05-04 18:09 44.68236 -66.02193 8018 ft 126 kts 253°
2026-05-04 18:09 44.67625 -66.04491 8035 ft 125 kts 253°
2026-05-04 18:10 44.67318 -66.05640 8036 ft 126 kts 253°
2026-05-04 18:10 44.67012 -66.06784 8030 ft 126 kts 253°
2026-05-04 18:10 44.66704 -66.07941 8034 ft 125 kts 253°
2026-05-04 18:10 44.66401 -66.09078 8040 ft 125 kts 253°
2026-05-04 18:11 44.66096 -66.10221 8039 ft 125 kts 253°
2026-05-04 18:11 44.65786 -66.11385 8030 ft 126 kts 253°
2026-05-04 18:11 44.65478 -66.12530 8025 ft 125 kts 253°
2026-05-04 18:11 44.65173 -66.13673 8026 ft 125 kts 253°
2026-05-04 18:12 44.64872 -66.14799 8029 ft 124 kts 253°
2026-05-04 18:12 44.64567 -66.15938 8033 ft 124 kts 253°
2026-05-04 18:12 44.64258 -66.17091 8028 ft 125 kts 253°
2026-05-04 18:12 44.63953 -66.18229 8029 ft 125 kts 253°
2026-05-04 18:13 44.63649 -66.19360 8029 ft 125 kts 253°
2026-05-04 18:13 44.63341 -66.20508 8032 ft 125 kts 253°
2026-05-04 18:13 44.62728 -66.22794 8021 ft 125 kts 253°
2026-05-04 18:14 44.62420 -66.23938 8020 ft 125 kts 253°
2026-05-04 18:14 44.62117 -66.25068 8025 ft 125 kts 253°
2026-05-04 18:14 44.61809 -66.26215 8020 ft 125 kts 253°
2026-05-04 18:15 44.61196 -66.28487 8020 ft 125 kts 253°
2026-05-04 18:15 44.60583 -66.30765 8020 ft 125 kts 253°
2026-05-04 18:15 44.60275 -66.31910 8023 ft 125 kts 253°
2026-05-04 18:16 44.59967 -66.33049 8018 ft 125 kts 253°
2026-05-04 18:16 44.59661 -66.34179 8019 ft 124 kts 253°
2026-05-04 18:16 44.59356 -66.35310 8025 ft 124 kts 253°
2026-05-04 18:17 44.58743 -66.37579 8023 ft 124 kts 253°
2026-05-04 18:17 44.58438 -66.38704 8021 ft 124 kts 253°
2026-05-04 18:17 44.57825 -66.40973 8023 ft 124 kts 253°
2026-05-04 18:18 44.57519 -66.42104 8021 ft 124 kts 253°
2026-05-04 18:18 44.57217 -66.43223 8019 ft 124 kts 253°
2026-05-04 18:18 44.56909 -66.44358 8023 ft 123 kts 253°
2026-05-04 18:18 44.56606 -66.45470 8024 ft 123 kts 253°
2026-05-04 18:19 44.55999 -66.47714 8023 ft 123 kts 253°
2026-05-04 18:19 44.55694 -66.48837 8025 ft 122 kts 253°
2026-05-04 18:19 44.55390 -66.49954 8027 ft 122 kts 253°
2026-05-04 18:20 44.55090 -66.51058 8027 ft 122 kts 253°
2026-05-04 18:20 44.54785 -66.52171 8030 ft 122 kts 253°
2026-05-04 18:20 44.54482 -66.53291 8031 ft 122 kts 253°
2026-05-04 18:20 44.54181 -66.54397 8035 ft 122 kts 254°
2026-05-04 18:21 44.53875 -66.55521 8036 ft 122 kts 253°
2026-05-04 18:21 44.53574 -66.56626 8036 ft 122 kts 253°
2026-05-04 18:21 44.53272 -66.57736 8033 ft 122 kts 253°
2026-05-04 18:21 44.52967 -66.58861 8029 ft 123 kts 253°
2026-05-04 18:22 44.52664 -66.59968 8026 ft 123 kts 253°
2026-05-04 18:22 44.52355 -66.61098 8025 ft 123 kts 253°
2026-05-04 18:22 44.52053 -66.62209 8022 ft 123 kts 253°
2026-05-04 18:22 44.51746 -66.63332 8017 ft 123 kts 253°
2026-05-04 18:23 44.51440 -66.64448 8017 ft 123 kts 253°
2026-05-04 18:23 44.51132 -66.65570 8032 ft 123 kts 253°
2026-05-04 18:23 44.50827 -66.66687 8033 ft 123 kts 253°
2026-05-04 18:23 44.50519 -66.67814 8032 ft 124 kts 253°
2026-05-04 18:24 44.50212 -66.68938 8034 ft 124 kts 253°
2026-05-04 18:24 44.49902 -66.70071 8037 ft 124 kts 253°
2026-05-04 18:24 44.49591 -66.71205 8040 ft 124 kts 253°
2026-05-04 18:24 44.49281 -66.72336 8041 ft 124 kts 253°
2026-05-04 18:25 44.48973 -66.73458 8043 ft 124 kts 253°
2026-05-04 18:25 44.48661 -66.74597 8044 ft 124 kts 253°
2026-05-04 18:25 44.48351 -66.75721 8049 ft 124 kts 253°
2026-05-04 18:25 44.48044 -66.76842 8054 ft 124 kts 253°
2026-05-04 18:26 44.47734 -66.77972 8048 ft 124 kts 253°
2026-05-04 18:26 44.47424 -66.79102 8036 ft 125 kts 253°
2026-05-04 18:26 44.47112 -66.80231 8032 ft 125 kts 253°
2026-05-04 18:26 44.46802 -66.81361 8028 ft 125 kts 252°
2026-05-04 18:27 44.46490 -66.82495 8027 ft 125 kts 253°
2026-05-04 18:27 44.46175 -66.83638 8033 ft 125 kts 253°
2026-05-04 18:27 44.45865 -66.84766 8030 ft 125 kts 253°
2026-05-04 18:27 44.45550 -66.85906 8022 ft 125 kts 252°
2026-05-04 18:28 44.45239 -66.87035 8018 ft 125 kts 253°
2026-05-04 18:28 44.44928 -66.88162 8018 ft 125 kts 253°
2026-05-04 18:28 44.44615 -66.89293 8024 ft 125 kts 253°
2026-05-04 18:28 44.44303 -66.90424 8022 ft 125 kts 252°
2026-05-04 18:29 44.43991 -66.91556 8024 ft 125 kts 253°
2026-05-04 18:29 44.43678 -66.92680 8022 ft 124 kts 253°
2026-05-04 18:29 44.43363 -66.93824 8023 ft 124 kts 252°
2026-05-04 18:29 44.43051 -66.94951 8020 ft 124 kts 253°
2026-05-04 18:30 44.42428 -66.97199 8023 ft 124 kts 253°
2026-05-04 18:30 44.42117 -66.98321 8020 ft 124 kts 253°
2026-05-04 18:30 44.41804 -66.99453 8014 ft 124 kts 252°
2026-05-04 18:31 44.41348 -67.00496 8020 ft 127 kts 241°
2026-05-04 18:31 44.41059 -67.01620 8023 ft 122 kts 257°
2026-05-04 18:31 44.40825 -67.02762 8019 ft 123 kts 256°
2026-05-04 18:31 44.40575 -67.03912 8019 ft 123 kts 255°
2026-05-04 18:32 44.40316 -67.05049 8025 ft 123 kts 255°
2026-05-04 18:32 44.40050 -67.06187 8027 ft 123 kts 255°
2026-05-04 18:32 44.39781 -67.07313 8033 ft 123 kts 255°
2026-05-04 18:32 44.39507 -67.08449 8039 ft 123 kts 255°
2026-05-04 18:33 44.39232 -67.09573 8034 ft 123 kts 255°
2026-05-04 18:33 44.38950 -67.10708 8037 ft 122 kts 255°
2026-05-04 18:33 44.38675 -67.11823 8033 ft 122 kts 255°
2026-05-04 18:33 44.38393 -67.12952 8030 ft 122 kts 254°
2026-05-04 18:34 44.38115 -67.14072 8030 ft 122 kts 254°
2026-05-04 18:34 44.37835 -67.15191 8023 ft 122 kts 254°
2026-05-04 18:34 44.37549 -67.16305 8020 ft 121 kts 253°
2026-05-04 18:34 44.37273 -67.17406 8009 ft 120 kts 254°
2026-05-04 18:35 44.36998 -67.18510 8016 ft 119 kts 254°
2026-05-04 18:35 44.36721 -67.19601 8025 ft 118 kts 254°
2026-05-04 18:35 44.36451 -67.20672 8032 ft 118 kts 254°
2026-05-04 18:35 44.36177 -67.21756 8039 ft 118 kts 254°
2026-05-04 18:36 44.35903 -67.22840 8044 ft 118 kts 255°
2026-05-04 18:36 44.35633 -67.23923 8046 ft 118 kts 254°
2026-05-04 18:36 44.35361 -67.25002 8039 ft 118 kts 254°
2026-05-04 18:36 44.35086 -67.26086 8041 ft 118 kts 254°
2026-05-04 18:37 44.34810 -67.27168 8044 ft 118 kts 254°
2026-05-04 18:37 44.34542 -67.28250 8037 ft 118 kts 255°
2026-05-04 18:37 44.34263 -67.29333 8034 ft 119 kts 255°
2026-05-04 18:37 44.33991 -67.30430 8027 ft 119 kts 254°
2026-05-04 18:38 44.33710 -67.31514 8032 ft 119 kts 254°
2026-05-04 18:38 44.33434 -67.32610 8034 ft 120 kts 254°
2026-05-04 18:38 44.33057 -67.33656 8035 ft 127 kts 234°
2026-05-04 18:38 44.32359 -67.34457 8036 ft 130 kts 229°
2026-05-04 18:39 44.31636 -67.35225 8034 ft 131 kts 228°
2026-05-04 18:39 44.30896 -67.35982 8028 ft 132 kts 227°
2026-05-04 18:39 44.30150 -67.36725 8020 ft 132 kts 227°
2026-05-04 18:39 44.29400 -67.37460 8019 ft 132 kts 226°
2026-05-04 18:40 44.28641 -67.38191 8016 ft 132 kts 226°
2026-05-04 18:40 44.27875 -67.38924 8022 ft 133 kts 226°
2026-05-04 18:40 44.27115 -67.39649 8020 ft 133 kts 226°
2026-05-04 18:40 44.26350 -67.40373 8018 ft 133 kts 226°
2026-05-04 18:41 44.25589 -67.41090 8017 ft 132 kts 225°
2026-05-04 18:41 44.24822 -67.41811 8018 ft 132 kts 225°
2026-05-04 18:41 44.24053 -67.42531 8022 ft 132 kts 226°
2026-05-04 18:41 44.23286 -67.43251 8020 ft 132 kts 226°
2026-05-04 18:42 44.22520 -67.43969 8018 ft 132 kts 225°
2026-05-04 18:42 44.21761 -67.44680 8016 ft 132 kts 225°
2026-05-04 18:42 44.20998 -67.45392 8016 ft 133 kts 225°
2026-05-04 18:42 44.20227 -67.46113 8018 ft 133 kts 225°
2026-05-04 18:43 44.19461 -67.46828 8022 ft 133 kts 226°
2026-05-04 18:43 44.18688 -67.47551 8023 ft 133 kts 226°
2026-05-04 18:43 44.17916 -67.48271 8023 ft 133 kts 226°
2026-05-04 18:43 44.17153 -67.48981 8023 ft 133 kts 226°
2026-05-04 18:44 44.16379 -67.49704 8015 ft 133 kts 226°
2026-05-04 18:44 44.15871 -67.50178 8015 ft 133 kts 225°
2026-05-04 18:44 44.14849 -67.51131 8012 ft 132 kts 226°
2026-05-04 18:44 44.14082 -67.51846 8013 ft 132 kts 226°
2026-05-04 18:45 44.13314 -67.52561 8012 ft 132 kts 225°
2026-05-04 18:45 44.12555 -67.53268 8016 ft 132 kts 226°
2026-05-04 18:45 44.11787 -67.53982 8018 ft 132 kts 226°
2026-05-04 18:45 44.11032 -67.54684 8028 ft 132 kts 226°
2026-05-04 18:46 44.10265 -67.55395 8033 ft 132 kts 226°
2026-05-04 18:46 44.09502 -67.56106 8041 ft 132 kts 226°
2026-05-04 18:46 44.08733 -67.56821 8049 ft 132 kts 226°
2026-05-04 18:46 44.07974 -67.57526 8050 ft 132 kts 226°
2026-05-04 18:47 44.07206 -67.58240 8055 ft 131 kts 226°
2026-05-04 18:47 44.06443 -67.58949 8054 ft 132 kts 226°
2026-05-04 18:47 44.05682 -67.59658 8051 ft 132 kts 226°
2026-05-04 18:47 44.04925 -67.60361 8045 ft 132 kts 226°
2026-05-04 18:48 44.04155 -67.61075 8044 ft 132 kts 226°
2026-05-04 18:48 44.03399 -67.61776 8038 ft 132 kts 226°
2026-05-04 18:48 44.02631 -67.62486 8044 ft 132 kts 226°
2026-05-04 18:48 44.01866 -67.63197 8042 ft 132 kts 226°
2026-05-04 18:49 44.01095 -67.63911 8041 ft 132 kts 226°
2026-05-04 18:49 44.00328 -67.64621 8051 ft 132 kts 226°
2026-05-04 18:49 43.99565 -67.65325 8054 ft 133 kts 226°
2026-05-04 18:49 43.98786 -67.66047 8062 ft 133 kts 226°
2026-05-04 18:50 43.98013 -67.66764 8062 ft 134 kts 225°
2026-05-04 18:50 43.97232 -67.67488 8056 ft 135 kts 226°
2026-05-04 18:50 43.96458 -67.68206 8051 ft 136 kts 225°
2026-05-04 18:50 43.95668 -67.68935 8049 ft 136 kts 225°
2026-05-04 18:51 43.94878 -67.69666 8047 ft 136 kts 225°
2026-05-04 18:51 43.94086 -67.70397 8044 ft 136 kts 225°
2026-05-04 18:51 43.93299 -67.71124 8042 ft 136 kts 225°
2026-05-04 18:51 43.92511 -67.71851 8043 ft 136 kts 225°
2026-05-04 18:52 43.91722 -67.72579 8043 ft 136 kts 225°
2026-05-04 18:52 43.90936 -67.73305 8040 ft 136 kts 225°
2026-05-04 18:52 43.90144 -67.74035 8042 ft 136 kts 225°
2026-05-04 18:52 43.89356 -67.74762 8048 ft 135 kts 225°
2026-05-04 18:53 43.88569 -67.75487 8047 ft 135 kts 225°
2026-05-04 18:53 43.87793 -67.76202 8046 ft 136 kts 225°
2026-05-04 18:53 43.87005 -67.76928 8044 ft 136 kts 225°
2026-05-04 18:53 43.86217 -67.77652 8043 ft 136 kts 225°
2026-05-04 18:54 43.85430 -67.78380 8042 ft 136 kts 225°
2026-05-04 18:54 43.84630 -67.79115 8041 ft 136 kts 225°
2026-05-04 18:54 43.83843 -67.79839 8043 ft 136 kts 225°
2026-05-04 18:54 43.83060 -67.80559 8049 ft 136 kts 225°
2026-05-04 18:55 43.82270 -67.81285 8051 ft 136 kts 225°
2026-05-04 18:55 43.80692 -67.82738 8053 ft 136 kts 225°
2026-05-04 18:55 43.79900 -67.83465 8051 ft 137 kts 225°
2026-05-04 18:56 43.79108 -67.84192 8052 ft 137 kts 225°
2026-05-04 18:56 43.78314 -67.84920 8047 ft 137 kts 225°
2026-05-04 18:56 43.77520 -67.85648 8044 ft 137 kts 225°
2026-05-04 18:56 43.76722 -67.86381 8045 ft 136 kts 225°
2026-05-04 18:57 43.75938 -67.87101 8049 ft 136 kts 225°
2026-05-04 18:57 43.75145 -67.87825 8051 ft 136 kts 225°
2026-05-04 18:57 43.74355 -67.88551 8054 ft 136 kts 225°
2026-05-04 18:57 43.73571 -67.89268 8052 ft 136 kts 225°
2026-05-04 18:58 43.72786 -67.89988 8051 ft 136 kts 225°
2026-05-04 18:58 43.71987 -67.90719 8054 ft 136 kts 225°
2026-05-04 18:58 43.71199 -67.91441 8058 ft 136 kts 225°
2026-05-04 18:58 43.70416 -67.92158 8061 ft 136 kts 225°
2026-05-04 18:59 43.69624 -67.92884 8065 ft 136 kts 225°
2026-05-04 18:59 43.68838 -67.93602 8061 ft 136 kts 225°
2026-05-04 18:59 43.68045 -67.94326 8064 ft 136 kts 225°
2026-05-04 18:59 43.67254 -67.95049 8068 ft 136 kts 225°
2026-05-04 19:00 43.66465 -67.95768 8071 ft 136 kts 225°
2026-05-04 19:00 43.65680 -67.96485 8071 ft 136 kts 225°
2026-05-04 19:00 43.64883 -67.97214 8073 ft 136 kts 225°
2026-05-04 19:00 43.64097 -67.97932 8075 ft 137 kts 225°
2026-05-04 19:01 43.63303 -67.98657 8074 ft 137 kts 225°
2026-05-04 19:01 43.62506 -67.99384 8069 ft 137 kts 225°
2026-05-04 19:01 43.61709 -68.00110 8066 ft 137 kts 225°
2026-05-04 19:01 43.60907 -68.00841 8063 ft 137 kts 225°
2026-05-04 19:02 43.60107 -68.01569 8068 ft 137 kts 225°
2026-05-04 19:02 43.59313 -68.02294 8070 ft 137 kts 225°
2026-05-04 19:02 43.58518 -68.03018 8075 ft 137 kts 225°
2026-05-04 19:02 43.57725 -68.03739 8077 ft 137 kts 225°
2026-05-04 19:03 43.56928 -68.04465 8078 ft 137 kts 225°
2026-05-04 19:03 43.56135 -68.05187 8069 ft 138 kts 225°
2026-05-04 19:03 43.55337 -68.05913 8059 ft 138 kts 225°
2026-05-04 19:03 43.54525 -68.06651 8052 ft 138 kts 225°
2026-05-04 19:04 43.53722 -68.07381 8050 ft 138 kts 225°
2026-05-04 19:04 43.52926 -68.08102 8050 ft 138 kts 225°
2026-05-04 19:04 43.52129 -68.08827 8049 ft 138 kts 225°
2026-05-04 19:04 43.51324 -68.09559 8052 ft 137 kts 225°
2026-05-04 19:05 43.50528 -68.10280 8054 ft 137 kts 225°
2026-05-04 19:05 43.49722 -68.11011 8058 ft 137 kts 225°
2026-05-04 19:05 43.48930 -68.11731 8063 ft 137 kts 225°
2026-05-04 19:05 43.48131 -68.12454 8067 ft 138 kts 225°
2026-05-04 19:06 43.47331 -68.13180 8068 ft 138 kts 225°
2026-05-04 19:06 43.46529 -68.13908 8068 ft 138 kts 225°
2026-05-04 19:06 43.45727 -68.14635 8069 ft 138 kts 224°
2026-05-04 19:06 43.44932 -68.15354 8070 ft 137 kts 224°
2026-05-04 19:07 43.44125 -68.16084 8072 ft 137 kts 224°
2026-05-04 19:07 43.43333 -68.16801 8074 ft 137 kts 224°
2026-05-04 19:07 43.42528 -68.17532 8076 ft 137 kts 224°
2026-05-04 19:07 43.41732 -68.18250 8075 ft 138 kts 225°
2026-05-04 19:08 43.40932 -68.18974 8071 ft 138 kts 224°
2026-05-04 19:08 43.40132 -68.19695 8067 ft 138 kts 224°
2026-05-04 19:08 43.39321 -68.20428 8068 ft 138 kts 225°
2026-05-04 19:08 43.38526 -68.21146 8071 ft 137 kts 225°
2026-05-04 19:09 43.37720 -68.21874 8075 ft 137 kts 224°
2026-05-04 19:09 43.36922 -68.22596 8077 ft 138 kts 224°
2026-05-04 19:09 43.36123 -68.23318 8080 ft 138 kts 224°
2026-05-04 19:09 43.35322 -68.24040 8082 ft 138 kts 224°
2026-05-04 19:10 43.34514 -68.24770 8082 ft 138 kts 224°
2026-05-04 19:10 43.33717 -68.25486 8076 ft 138 kts 224°
2026-05-04 19:10 43.32905 -68.26221 8075 ft 138 kts 224°
2026-05-04 19:10 43.32101 -68.26944 8076 ft 138 kts 224°
2026-05-04 19:11 43.31298 -68.27666 8078 ft 138 kts 224°
2026-05-04 19:11 43.30495 -68.28389 8081 ft 138 kts 224°
2026-05-04 19:11 43.29691 -68.29112 8084 ft 138 kts 224°
2026-05-04 19:11 43.28891 -68.29833 8087 ft 138 kts 224°
2026-05-04 19:12 43.28078 -68.30563 8090 ft 138 kts 224°
2026-05-04 19:12 43.26477 -68.32004 8096 ft 138 kts 224°
2026-05-04 19:12 43.25673 -68.32727 8092 ft 139 kts 224°
2026-05-04 19:13 43.24865 -68.33453 8090 ft 139 kts 224°
2026-05-04 19:13 43.24049 -68.34187 8090 ft 139 kts 224°
2026-05-04 19:13 43.23243 -68.34909 8089 ft 139 kts 224°
2026-05-04 19:13 43.22436 -68.35634 8089 ft 139 kts 224°
2026-05-04 19:14 43.21621 -68.36365 8087 ft 139 kts 224°
2026-05-04 19:14 43.20810 -68.37092 8080 ft 139 kts 224°
2026-05-04 19:14 43.19999 -68.37820 8077 ft 139 kts 224°
2026-05-04 19:14 43.19193 -68.38541 8080 ft 139 kts 224°
2026-05-04 19:15 43.18379 -68.39271 8077 ft 139 kts 224°
2026-05-04 19:15 43.17571 -68.39996 8080 ft 139 kts 224°
2026-05-04 19:15 43.16758 -68.40723 8076 ft 139 kts 224°
2026-05-04 19:15 43.15954 -68.41443 8078 ft 139 kts 224°
2026-05-04 19:16 43.15150 -68.42163 8083 ft 139 kts 224°
2026-05-04 19:16 43.14333 -68.42894 8080 ft 139 kts 224°
2026-05-04 19:16 43.13527 -68.43615 8083 ft 139 kts 224°
2026-05-04 19:16 43.12723 -68.44334 8086 ft 138 kts 224°
2026-05-04 19:17 43.11910 -68.45061 8090 ft 138 kts 224°
2026-05-04 19:17 43.11101 -68.45782 8094 ft 138 kts 224°
2026-05-04 19:17 43.10300 -68.46500 8097 ft 138 kts 224°
2026-05-04 19:17 43.09497 -68.47216 8097 ft 138 kts 224°
2026-05-04 19:18 43.08684 -68.47942 8099 ft 139 kts 223°
2026-05-04 19:18 43.07878 -68.48661 8096 ft 139 kts 224°
2026-05-04 19:18 43.07056 -68.49395 8091 ft 140 kts 224°
2026-05-04 19:18 43.06241 -68.50121 8089 ft 140 kts 224°
2026-05-04 19:19 43.05433 -68.50842 8092 ft 139 kts 224°
2026-05-04 19:19 43.04614 -68.51572 8091 ft 139 kts 224°
2026-05-04 19:19 43.03801 -68.52296 8092 ft 139 kts 223°
2026-05-04 19:19 43.02995 -68.53014 8087 ft 140 kts 223°
2026-05-04 19:20 43.02171 -68.53746 8084 ft 140 kts 224°
2026-05-04 19:20 43.01364 -68.54465 8085 ft 139 kts 224°
2026-05-04 19:20 43.00546 -68.55193 8083 ft 139 kts 224°
2026-05-04 19:20 42.99737 -68.55912 8084 ft 140 kts 224°
2026-05-04 19:21 42.98916 -68.56641 8084 ft 140 kts 224°
2026-05-04 19:21 42.98100 -68.57369 8088 ft 139 kts 224°
2026-05-04 19:21 42.97295 -68.58084 8094 ft 139 kts 223°
2026-05-04 19:21 42.96476 -68.58813 8098 ft 139 kts 223°
2026-05-04 19:22 42.95671 -68.59527 8101 ft 139 kts 223°
2026-05-04 19:22 42.94860 -68.60249 8102 ft 139 kts 224°
2026-05-04 19:22 42.94041 -68.60973 8102 ft 139 kts 223°
2026-05-04 19:22 42.93224 -68.61698 8100 ft 140 kts 223°
2026-05-04 19:23 42.92417 -68.62415 8102 ft 139 kts 224°
2026-05-04 19:23 42.91606 -68.63134 8102 ft 139 kts 223°
2026-05-04 19:23 42.90791 -68.63856 8101 ft 139 kts 223°
2026-05-04 19:23 42.89976 -68.64579 8099 ft 139 kts 223°
2026-05-04 19:24 42.89155 -68.65305 8105 ft 139 kts 223°
2026-05-04 19:24 42.88340 -68.66026 8110 ft 140 kts 223°
2026-05-04 19:24 42.87522 -68.66752 8110 ft 141 kts 223°
2026-05-04 19:24 42.86700 -68.67479 8111 ft 141 kts 223°
2026-05-04 19:25 42.85871 -68.68213 8110 ft 142 kts 223°
2026-05-04 19:25 42.85053 -68.68937 8109 ft 142 kts 223°
2026-05-04 19:25 42.84212 -68.69681 8109 ft 142 kts 223°
2026-05-04 19:25 42.83390 -68.70408 8109 ft 143 kts 223°
2026-05-04 19:26 42.82552 -68.71149 8109 ft 143 kts 222°
2026-05-04 19:26 42.81715 -68.71889 8111 ft 143 kts 222°
2026-05-04 19:26 42.80877 -68.72627 8111 ft 143 kts 222°
2026-05-04 19:26 42.80050 -68.73357 8111 ft 143 kts 222°
2026-05-04 19:27 42.79213 -68.74096 8115 ft 142 kts 222°
2026-05-04 19:27 42.78379 -68.74830 8120 ft 142 kts 222°
2026-05-04 19:27 42.77544 -68.75566 8121 ft 142 kts 223°
2026-05-04 19:27 42.76712 -68.76299 8121 ft 142 kts 223°
2026-05-04 19:28 42.75883 -68.77030 8118 ft 142 kts 223°
2026-05-04 19:28 42.75050 -68.77763 8114 ft 143 kts 223°
2026-05-04 19:28 42.74210 -68.78504 8112 ft 143 kts 223°
2026-05-04 19:28 42.73387 -68.79229 8116 ft 142 kts 223°
2026-05-04 19:29 42.72549 -68.79967 8114 ft 143 kts 222°
2026-05-04 19:29 42.71720 -68.80697 8112 ft 142 kts 222°
2026-05-04 19:29 42.70881 -68.81433 8114 ft 142 kts 222°
2026-05-04 19:29 42.70055 -68.82157 8113 ft 142 kts 223°
2026-05-04 19:30 42.69223 -68.82890 8123 ft 142 kts 222°
2026-05-04 19:30 42.68392 -68.83621 8126 ft 142 kts 222°
2026-05-04 19:30 42.67554 -68.84358 8129 ft 142 kts 222°
2026-05-04 19:30 42.66726 -68.85085 8128 ft 142 kts 222°
2026-05-04 19:31 42.65895 -68.85815 8126 ft 142 kts 222°
2026-05-04 19:31 42.65062 -68.86546 8124 ft 143 kts 222°
2026-05-04 19:31 42.64227 -68.87277 8126 ft 143 kts 222°
2026-05-04 19:31 42.63393 -68.88009 8126 ft 143 kts 222°
2026-05-04 19:32 42.62554 -68.88745 8127 ft 143 kts 222°
2026-05-04 19:32 42.61725 -68.89472 8134 ft 142 kts 222°
2026-05-04 19:32 42.60893 -68.90202 8141 ft 142 kts 221°
2026-05-04 19:32 42.60065 -68.90927 8139 ft 142 kts 221°
2026-05-04 19:33 42.59227 -68.91660 8132 ft 143 kts 222°
2026-05-04 19:33 42.58387 -68.92394 8129 ft 143 kts 222°
2026-05-04 19:33 42.57548 -68.93130 8122 ft 144 kts 222°
2026-05-04 19:33 42.56712 -68.93861 8127 ft 143 kts 221°
2026-05-04 19:34 42.55873 -68.94595 8131 ft 142 kts 222°
2026-05-04 19:34 42.55035 -68.95325 8129 ft 143 kts 222°
2026-05-04 19:34 42.54210 -68.96048 8126 ft 143 kts 222°
2026-05-04 19:34 42.53366 -68.96783 8117 ft 143 kts 222°
2026-05-04 19:35 42.52531 -68.97514 8121 ft 143 kts 221°
2026-05-04 19:35 42.51696 -68.98244 8127 ft 142 kts 221°
2026-05-04 19:35 42.50861 -68.98972 8127 ft 142 kts 221°
2026-05-04 19:35 42.50030 -68.99698 8127 ft 143 kts 221°
2026-05-04 19:36 42.49186 -69.00429 8123 ft 143 kts 221°
2026-05-04 19:36 42.48358 -69.01157 8128 ft 143 kts 221°
2026-05-04 19:36 42.47511 -69.01893 8134 ft 143 kts 221°
2026-05-04 19:36 42.46681 -69.02618 8132 ft 143 kts 221°
2026-05-04 19:37 42.45841 -69.03346 8130 ft 143 kts 222°
2026-05-04 19:37 42.45004 -69.04079 8127 ft 143 kts 221°
2026-05-04 19:37 42.44164 -69.04811 8129 ft 143 kts 221°
2026-05-04 19:37 42.43328 -69.05542 8050 ft 148 kts 221°
2026-05-04 19:38 42.42444 -69.06318 7930 ft 152 kts 221°
2026-05-04 19:38 42.41552 -69.07087 7915 ft 150 kts 221°
2026-05-04 19:38 42.40676 -69.07846 7916 ft 148 kts 221°
2026-05-04 19:38 42.39813 -69.08592 7921 ft 146 kts 221°
2026-05-04 19:39 42.38958 -69.09335 7921 ft 145 kts 221°
2026-05-04 19:39 42.38105 -69.10074 7921 ft 145 kts 221°
2026-05-04 19:39 42.37260 -69.10809 7917 ft 144 kts 221°
2026-05-04 19:39 42.36414 -69.11540 7914 ft 144 kts 221°
2026-05-04 19:40 42.35577 -69.12268 7916 ft 144 kts 221°
2026-05-04 19:40 42.34731 -69.13001 7916 ft 144 kts 221°
2026-05-04 19:40 42.33886 -69.13737 7920 ft 143 kts 221°
2026-05-04 19:40 42.33047 -69.14465 7921 ft 143 kts 221°
2026-05-04 19:41 42.32212 -69.15188 7919 ft 143 kts 221°
2026-05-04 19:41 42.31367 -69.15919 7918 ft 144 kts 221°
2026-05-04 19:41 42.30531 -69.16641 7917 ft 144 kts 221°
2026-05-04 19:41 42.29679 -69.17381 7921 ft 144 kts 221°
2026-05-04 19:42 42.28837 -69.18110 7922 ft 144 kts 221°
2026-05-04 19:42 42.27993 -69.18840 7921 ft 144 kts 221°
2026-05-04 19:42 42.27147 -69.19570 7917 ft 144 kts 221°
2026-05-04 19:42 42.26299 -69.20304 7915 ft 144 kts 221°
2026-05-04 19:43 42.25454 -69.21034 7916 ft 144 kts 221°
2026-05-04 19:43 42.24605 -69.21767 7923 ft 144 kts 221°
2026-05-04 19:43 42.23770 -69.22489 7930 ft 144 kts 220°
2026-05-04 19:43 42.22922 -69.23221 7935 ft 144 kts 221°
2026-05-04 19:44 42.22073 -69.23954 7936 ft 144 kts 221°
2026-05-04 19:44 42.21231 -69.24679 7934 ft 144 kts 221°
2026-05-04 19:44 42.20384 -69.25410 7932 ft 144 kts 221°
2026-05-04 19:44 42.19540 -69.26138 7934 ft 144 kts 221°
2026-05-04 19:45 42.18692 -69.26869 7935 ft 144 kts 221°
2026-05-04 19:45 42.17850 -69.27596 7937 ft 144 kts 220°
2026-05-04 19:45 42.17017 -69.28312 7939 ft 144 kts 220°
2026-05-04 19:45 42.16170 -69.29043 7934 ft 144 kts 221°
2026-05-04 19:46 42.15319 -69.29775 7932 ft 145 kts 221°
2026-05-04 19:46 42.14474 -69.30502 7931 ft 145 kts 221°
2026-05-04 19:46 42.13618 -69.31238 7928 ft 145 kts 221°
2026-05-04 19:46 42.12776 -69.31962 7929 ft 145 kts 221°
2026-05-04 19:47 42.11925 -69.32695 7929 ft 145 kts 221°
2026-05-04 19:47 42.11079 -69.33423 7940 ft 144 kts 221°
2026-05-04 19:47 42.10228 -69.34153 7940 ft 145 kts 221°
2026-05-04 19:47 42.09375 -69.34886 7939 ft 145 kts 221°
2026-05-04 19:48 42.08527 -69.35616 7938 ft 145 kts 220°
2026-05-04 19:48 42.07666 -69.36355 7934 ft 146 kts 221°
2026-05-04 19:48 42.06820 -69.37079 7928 ft 145 kts 221°
2026-05-04 19:48 42.05957 -69.37820 7932 ft 145 kts 221°
2026-05-04 19:49 42.05117 -69.38541 7937 ft 145 kts 221°
2026-05-04 19:49 42.04265 -69.39271 7940 ft 145 kts 220°
2026-05-04 19:49 42.03408 -69.40005 7948 ft 144 kts 220°
2026-05-04 19:49 42.02563 -69.40729 7953 ft 144 kts 221°
2026-05-04 19:50 42.01710 -69.41459 7951 ft 145 kts 221°
2026-05-04 19:50 42.00871 -69.42176 7951 ft 145 kts 221°
2026-05-04 19:50 42.00016 -69.42909 7956 ft 145 kts 221°
2026-05-04 19:50 41.99160 -69.43641 7953 ft 146 kts 221°
2026-05-04 19:51 41.98304 -69.44375 7953 ft 146 kts 220°
2026-05-04 19:51 41.97444 -69.45111 7953 ft 146 kts 221°
2026-05-04 19:51 41.96583 -69.45847 7954 ft 146 kts 220°
2026-05-04 19:51 41.95721 -69.46583 7953 ft 146 kts 220°
2026-05-04 19:52 41.94873 -69.47309 7953 ft 146 kts 220°
2026-05-04 19:52 41.94010 -69.48045 7952 ft 146 kts 221°
2026-05-04 19:52 41.93148 -69.48780 7951 ft 146 kts 220°
2026-05-04 19:52 41.92287 -69.49516 7949 ft 146 kts 220°
2026-05-04 19:53 41.91432 -69.50243 7950 ft 146 kts 220°
2026-05-04 19:53 41.90572 -69.50978 7954 ft 146 kts 220°
2026-05-04 19:53 41.89720 -69.51704 7960 ft 146 kts 220°
2026-05-04 19:53 41.88855 -69.52441 7965 ft 146 kts 220°
2026-05-04 19:54 41.88001 -69.53169 7967 ft 146 kts 220°
2026-05-04 19:54 41.87139 -69.53903 7971 ft 146 kts 220°
2026-05-04 19:54 41.86289 -69.54627 7970 ft 146 kts 220°
2026-05-04 19:54 41.85422 -69.55366 7965 ft 146 kts 220°
2026-05-04 19:55 41.84563 -69.56095 7962 ft 146 kts 220°
2026-05-04 19:55 41.83711 -69.56822 7963 ft 146 kts 220°
2026-05-04 19:55 41.82846 -69.57558 7963 ft 146 kts 220°
2026-05-04 19:55 41.81981 -69.58292 7962 ft 146 kts 220°
2026-05-04 19:56 41.81121 -69.59023 7964 ft 146 kts 220°
2026-05-04 19:56 41.80263 -69.59753 7962 ft 146 kts 220°
2026-05-04 19:56 41.79409 -69.60479 7960 ft 146 kts 220°
2026-05-04 19:56 41.78547 -69.61208 7961 ft 146 kts 220°
2026-05-04 19:57 41.77680 -69.61945 7959 ft 146 kts 220°
2026-05-04 19:57 41.76821 -69.62673 7956 ft 146 kts 220°
2026-05-04 19:57 41.75953 -69.63409 7956 ft 146 kts 220°
2026-05-04 19:57 41.75103 -69.64132 7954 ft 146 kts 220°
2026-05-04 19:58 41.74229 -69.64871 7952 ft 147 kts 220°
2026-05-04 19:58 41.73371 -69.65597 7956 ft 147 kts 219°
2026-05-04 19:58 41.72552 -69.66288 7954 ft 147 kts 220°
2026-05-04 19:58 41.71684 -69.67024 7947 ft 148 kts 220°
2026-05-04 19:59 41.70788 -69.67789 7801 ft 156 kts 220°
2026-05-04 19:59 41.69864 -69.68576 7656 ft 161 kts 219°
2026-05-04 19:59 41.68904 -69.69392 7508 ft 164 kts 219°
2026-05-04 19:59 41.67927 -69.70218 7367 ft 166 kts 219°
2026-05-04 20:00 41.66952 -69.71042 7224 ft 167 kts 219°
2026-05-04 20:00 41.65964 -69.71877 7077 ft 168 kts 219°
2026-05-04 20:00 41.64977 -69.72712 6928 ft 168 kts 219°
2026-05-04 20:00 41.63988 -69.73547 6780 ft 168 kts 219°
2026-05-04 20:01 41.62997 -69.74386 6625 ft 168 kts 219°
2026-05-04 20:01 41.62001 -69.75223 6467 ft 168 kts 219°
2026-05-04 20:01 41.61015 -69.76056 6315 ft 168 kts 219°
2026-05-04 20:01 41.60027 -69.76891 6175 ft 168 kts 219°
2026-05-04 20:02 41.59050 -69.77714 6027 ft 167 kts 219°
2026-05-04 20:02 41.58059 -69.78550 5875 ft 166 kts 219°
2026-05-04 20:02 41.57088 -69.79368 5723 ft 166 kts 219°
2026-05-04 20:02 41.56117 -69.80184 5567 ft 165 kts 219°
2026-05-04 20:03 41.55149 -69.81000 5420 ft 164 kts 218°
2026-05-04 20:03 41.54189 -69.81806 5269 ft 163 kts 219°
2026-05-04 20:03 41.53226 -69.82616 5124 ft 161 kts 218°
2026-05-04 20:03 41.52289 -69.83405 4979 ft 160 kts 218°
2026-05-04 20:04 41.51342 -69.84200 4826 ft 159 kts 218°
2026-05-04 20:04 41.50412 -69.84981 4675 ft 158 kts 218°
2026-05-04 20:04 41.49486 -69.85761 4521 ft 157 kts 218°
2026-05-04 20:04 41.48567 -69.86539 4364 ft 154 kts 219°
2026-05-04 20:05 41.47813 -69.87502 4204 ft 150 kts 231°
2026-05-04 20:05 41.47122 -69.88532 4027 ft 148 kts 231°
2026-05-04 20:05 41.46452 -69.89545 3854 ft 144 kts 231°
2026-05-04 20:05 41.45802 -69.90538 3676 ft 141 kts 231°
2026-05-04 20:06 41.45159 -69.91528 3494 ft 138 kts 231°
2026-05-04 20:06 41.44540 -69.92479 3310 ft 136 kts 231°
2026-05-04 20:06 41.43927 -69.93427 3125 ft 135 kts 231°
2026-05-04 20:06 41.43314 -69.94384 2939 ft 133 kts 231°
2026-05-04 20:07 41.42719 -69.95323 2755 ft 132 kts 231°
2026-05-04 20:07 41.42134 -69.96250 2576 ft 131 kts 231°
2026-05-04 20:07 41.41557 -69.97176 2404 ft 130 kts 232°
2026-05-04 20:07 41.40799 -69.97813 2223 ft 141 kts 195°
2026-05-04 20:08 41.39794 -69.97541 2060 ft 151 kts 174°
2026-05-04 20:08 41.38794 -69.97066 1887 ft 152 kts 172°
2026-05-04 20:08 41.37803 -69.96572 1718 ft 152 kts 171°
2026-05-04 20:08 41.36810 -69.96084 1545 ft 151 kts 171°
2026-05-04 20:09 41.35835 -69.95627 1486 ft 144 kts 171°
2026-05-04 20:09 41.34910 -69.95225 1483 ft 133 kts 179°
2026-05-04 20:09 41.34056 -69.95222 1476 ft 114 kts 208°
2026-05-04 20:09 41.33406 -69.95768 1493 ft 109 kts 220°
2026-05-04 20:10 41.32815 -69.96395 1485 ft 109 kts 224°
2026-05-04 20:10 41.32252 -69.97074 1490 ft 108 kts 225°
2026-05-04 20:10 41.31692 -69.97754 1493 ft 109 kts 225°
2026-05-04 20:10 41.31134 -69.98430 1497 ft 109 kts 224°
2026-05-04 20:11 41.30571 -69.99108 1498 ft 109 kts 224°
2026-05-04 20:11 41.30029 -69.99815 1483 ft 110 kts 228°
2026-05-04 20:11 41.29505 -70.00575 1423 ft 112 kts 229°
2026-05-04 20:11 41.28985 -70.01354 1313 ft 110 kts 229°
2026-05-04 20:12 41.28459 -70.02113 1148 ft 111 kts 226°
2026-05-04 20:12 41.27925 -70.02799 1054 ft 105 kts 226°
2026-05-04 20:12 41.27433 -70.03475 893 ft 96 kts 227°
2026-05-04 20:12 41.27029 -70.04062 664 ft 75 kts 230°
2026-05-04 20:13 41.26716 -70.04514 454 ft 61 kts 229°
2026-05-04 20:13 41.26441 -70.04911 315 ft 57 kts 226°
2026-05-04 20:13 41.26172 -70.05282 194 ft 54 kts 225°
2026-05-04 20:13 41.25916 -70.05621 82 ft 49 kts 225°
2026-05-04 20:14 41.25701 -70.05915 42 ft 37 kts 225°
2026-05-04 20:14 41.25555 -70.06107 41 ft 19 kts 224°
2026-05-04 20:14 41.25478 -70.06214 40 ft 13 kts 243°
2026-05-04 20:14 41.25502 -70.06298 40 ft 6 kts 316°
2026-05-04 20:15 41.25522 -70.06345 40 ft 11 kts 255°
2026-05-04 20:15 41.25469 -70.06428 37 ft 11 kts 225°
2026-05-04 20:15 41.25415 -70.06503 37 ft 10 kts 227°
2026-05-04 20:15 41.25365 -70.06569 35 ft 10 kts 223°
2026-05-04 20:16 41.25310 -70.06638 33 ft 11 kts 224°
2026-05-04 20:16 41.25267 -70.06705 33 ft 7 kts 228°
2026-05-04 20:16 41.25234 -70.06750 32 ft 5 kts 224°
2026-05-04 20:16 41.25231 -70.06815 30 ft 10 kts 311°
2026-05-04 20:17 41.25292 -70.06857 30 ft 10 kts 327°
2026-05-04 20:17 41.25332 -70.06863 30 ft 4 kts 108°
2026-05-04 20:17 41.25332 -70.06862 30 ft 0 kts 140°